CW3932 Weather Reports


time (UTC)temp
C
wind
direction
speed
KPH
gust
KPH
rain 1hr
cm
rain 24hr
cm
rain mn
cm
humidity
%
barometer
mb
20260906002010 22 269 0.0 4.8 0.00 0.00 0.00 44 1012.4
20260906001011 23 269 1.6 8.0 0.00 0.00 0.00 41 1012.4
20260906000009 23 263 1.6 6.4 0.00 0.00 0.00 43 1012.4
20260905235010 23 280 1.6 6.4 0.00 0.00 0.00 41 1012.4
20260905234448 23 281 3.2 14.5 0.00 0.00 0.00 41 1012.4
20260905233007 23 26 3.2 20.9 0.00 0.00 0.00 43 1012.4
20260905232005 23 285 3.2 14.5 0.00 0.00 0.00 43 1012.5
20260905231004 23 284 3.2 17.7 0.00 0.00 0.00 40 1012.5
20260905225959 24 334 3.2 9.7 0.00 0.00 0.00 43 1012.5
20260905225001 24 274 3.2 16.1 0.00 0.00 0.00 40 1012.6
20260905224000 24 329 3.2 8.0 0.00 0.00 0.00 43 1012.8
20260905223002 24 355 3.2 20.9 0.00 0.00 0.00 43 1012.9
20260905222001 25 332 3.2 14.5 0.00 0.00 0.00 42 1012.9
20260905220957 25 348 3.2 14.5 0.00 0.00 0.00 42 1013.0
20260905215957 25 303 3.2 14.5 0.00 0.00 0.00 40 1013.2
20260905214957 25 275 4.8 16.1 0.00 0.00 0.00 44 1013.2
20260905213957 25 336 3.2 14.5 0.00 0.00 0.00 42 1013.2
20260905212954 25 280 4.8 16.1 0.00 0.00 0.00 40 1013.4
20260905211953 24 11 3.2 14.5 0.00 0.00 0.00 41 1013.4
20260905210955 24 279 3.2 17.7 0.00 0.00 0.00 42 1013.6
20260905205955 24 263 4.8 17.7 0.00 0.00 0.00 43 1013.6
20260905204953 23 295 3.2 12.9 0.00 0.00 0.00 46 1013.7
20260905203949 23 272 3.2 12.9 0.00 0.00 0.00 44 1013.8
20260905203426 23 325 3.2 14.5 0.00 0.00 0.00 44 1013.8
20260905201949 23 329 3.2 9.7 0.00 0.00 0.00 46 1013.9
20260905200948 22 308 1.6 12.9 0.00 0.00 0.00 49 1014.0
20260905200422 22 329 3.2 14.5 0.00 0.00 0.00 52 1014.2
20260905194948 22 0 3.2 17.7 0.00 0.00 0.00 52 1014.3
20260905193950 21 12 3.2 12.9 0.00 0.00 0.00 54 1014.4
20260905192947 21 333 3.2 9.7 0.00 0.00 0.00 53 1014.7
20260905191948 21 61 3.2 16.1 0.00 0.00 0.00 54 1014.8
20260905190941 21 312 3.2 14.5 0.00 0.00 0.00 55 1015.0
20260905185941 21 13 3.2 8.0 0.00 0.00 0.00 55 1015.1
20260905184943 20 311 1.6 8.0 0.00 0.00 0.00 58 1015.2
20260905184422 20 0 3.2 9.7 0.00 0.00 0.00 57 1015.3
20260905182941 20 338 3.2 8.0 0.00 0.00 0.00 57 1015.5
20260905181940 20 248 3.2 14.5 0.00 0.00 0.00 58 1015.6
20260905180941 19 145 3.2 8.0 0.00 0.00 0.00 63 1015.7
20260905175942 19 297 1.6 6.4 0.00 0.00 0.00 65 1015.8
20260905174943 18 306 1.6 12.9 0.00 0.00 0.00 65 1015.9
20260905173939 18 5 1.6 6.4 0.00 0.00 0.00 67 1016.1
20260905172940 17 5 3.2 8.0 0.00 0.00 0.00 68 1016.2
20260905171937 17 336 1.6 6.4 0.00 0.00 0.00 73 1016.3
20260905170935 16 338 1.6 8.0 0.00 0.00 0.00 73 1016.3
20260905165938 15 290 1.6 8.0 0.00 0.00 0.00 75 1016.3
20260905164935 15 24 1.6 6.4 0.00 0.00 0.00 79 1016.5
20260905163934 14 36 1.6 6.4 0.00 0.00 0.00 82 1016.6
20260905162935 13 328 1.6 6.4 0.00 0.00 0.00 84 1016.7
20260905161935 13 331 1.6 6.4 0.00 0.00 0.00 87 1016.8
20260905161407 12 350 1.6 6.4 0.00 0.00 0.00 90 1017.0
20260905155934 11 350 1.6 6.4 0.00 0.00 0.00 92 1016.9
20260905154935 11 349 3.2 8.0 0.00 0.00 0.00 93 1017.0
20260905153937 11 307 1.6 6.4 0.00 0.00 0.00 94 1017.0
20260905152934 10 300 0.0 4.8 0.00 0.00 0.00 94 1017.0
20260905151936 10 300 0.0 4.8 0.00 0.00 0.00 93 1016.9
20260905150934 9 300 0.0 1.6 0.00 0.00 0.00 93 1016.9
20260905150422 9 300 0.0 4.8 0.00 0.00 0.00 92 1017.0
20260905144936 8 303 0.0 1.6 0.00 0.00 0.00 91 1017.1
20260905143939 8 304 0.0 0.0 0.00 0.00 0.00 90 1017.1
20260905142935 8 304 0.0 0.0 0.00 0.00 0.00 89 1017.1
20260905141936 8 304 0.0 0.0 0.00 0.00 0.00 88 1016.9
20260905140935 8 304 0.0 0.0 0.00 0.00 0.00 88 1016.8
20260905135935 8 304 0.0 0.0 0.00 0.00 0.00 88 1016.8
20260905134934 8 304 0.0 0.0 0.00 0.00 0.00 89 1016.8
20260905133935 8 304 0.0 0.0 0.00 0.00 0.00 89 1016.7
20260905132932 9 304 0.0 0.0 0.00 0.00 0.00 89 1016.6
20260905131931 9 304 0.0 0.0 0.00 0.00 0.00 89 1016.6
20260905130930 9 304 0.0 0.0 0.00 0.00 0.00 88 1016.5
20260905125928 10 304 0.0 0.0 0.00 0.00 0.00 88 1016.4
20260905124928 10 304 0.0 0.0 0.00 0.00 0.00 88 1016.5
20260905123927 10 304 0.0 0.0 0.00 0.05 0.00 88 1016.5
20260905122926 10 304 0.0 0.0 0.00 0.05 0.00 88 1016.6
20260905121925 10 304 0.0 0.0 0.00 0.05 0.00 88 1016.6
20260905121408 10 304 0.0 0.0 0.00 0.05 0.00 88 1016.6
20260905115924 10 304 0.0 1.6 0.00 0.05 0.00 88 1016.6
20260905114922 10 304 0.0 0.0 0.00 0.05 0.00 88 1016.7
20260905113924 10 304 0.0 0.0 0.00 0.05 0.00 88 1016.7
20260905112921 10 304 0.0 0.0 0.00 0.05 0.00 88 1016.6
20260905111919 10 304 0.0 1.6 0.00 0.05 0.00 88 1016.5
20260905110914 10 304 0.0 1.6 0.00 0.05 0.00 88 1016.5
20260905105917 10 304 0.0 0.0 0.00 0.05 0.00 87 1016.5
20260905104914 10 304 0.0 0.0 0.00 0.05 0.00 87 1016.6
20260905103914 10 304 0.0 0.0 0.00 0.05 0.00 87 1016.6
20260905102915 10 304 0.0 0.0 0.00 0.05 0.00 87 1016.6
20260905101914 10 304 0.0 0.0 0.00 0.05 0.00 87 1016.5
20260905100912 10 304 0.0 1.6 0.00 0.05 0.00 87 1016.5
20260905100355 10 304 0.0 0.0 0.00 0.05 0.00 87 1016.4
20260905094912 10 304 0.0 0.0 0.00 0.05 0.00 87 1016.4
20260905093907 10 304 0.0 1.6 0.00 0.05 0.00 87 1016.4
20260905092905 10 304 0.0 4.8 0.00 0.05 0.00 87 1016.3
20260905091907 10 302 0.0 4.8 0.00 0.05 0.00 85 1016.4
20260905090908 10 302 0.0 1.6 0.00 0.05 0.00 84 1016.4
20260905090350 10 302 0.0 1.6 0.00 0.05 0.00 84 1016.4
20260905084908 11 302 0.0 1.6 0.00 0.05 0.00 84 1016.3
20260905083906 11 302 0.0 1.6 0.00 0.05 0.00 84 1016.4
20260905082912 11 302 0.0 0.0 0.00 0.05 0.00 84 1016.3
20260905081907 11 302 0.0 0.0 0.00 0.05 0.00 84 1016.3
20260905080906 11 302 0.0 0.0 0.00 0.05 0.00 83 1016.3
20260905075904 11 302 0.0 0.0 0.00 0.05 0.00 83 1016.2
20260905074903 11 302 0.0 0.0 0.00 0.05 0.00 82 1016.1
20260905074353 11 302 0.0 0.0 0.00 0.05 0.00 82 1016.1
20260905072903 12 302 0.0 4.8 0.00 0.05 0.00 82 1016.2
20260905071904 12 302 0.0 1.6 0.00 0.05 0.00 82 1016.1
20260905070906 12 302 0.0 0.0 0.00 0.05 0.00 81 1016.1
20260905065900 12 302 0.0 0.0 0.00 0.05 0.05 82 1015.9
20260905065342 12 302 0.0 1.6 0.00 0.05 0.05 81 1015.8
20260905063902 12 302 0.0 1.6 0.00 0.05 0.05 82 1015.6
20260905062901 12 302 0.0 1.6 0.00 0.05 0.05 81 1015.7
20260905061900 12 302 1.6 6.4 0.00 0.05 0.05 80 1015.8
20260905060902 12 302 0.0 4.8 0.00 0.05 0.05 79 1015.9
20260905055902 12 302 0.0 1.6 0.00 0.05 0.05 79 1015.7
20260905054902 12 302 0.0 1.6 0.00 0.05 0.05 78 1015.6
20260905053901 13 302 0.0 1.6 0.00 0.05 0.05 77 1015.7
20260905052901 13 302 0.0 6.4 0.00 0.05 0.05 77 1015.7
20260905052355 13 309 0.0 1.6 0.00 0.05 0.05 76 1015.6
20260905050901 13 309 0.0 1.6 0.00 0.05 0.05 75 1015.5
20260905045852 14 309 0.0 6.4 0.00 0.05 0.05 75 1015.6
20260905044852 14 309 0.0 4.8 0.00 0.05 0.05 72 1015.6
20260905043853 14 309 0.0 1.6 0.00 0.05 0.05 72 1015.5
20260905042856 15 309 0.0 1.6 0.00 0.05 0.05 71 1015.4
20260905041856 15 309 0.0 1.6 0.00 0.05 0.05 69 1015.3
20260905041337 15 309 0.0 1.6 0.00 0.05 0.05 68 1015.2
20260905035851 15 309 1.6 6.4 0.00 0.05 0.05 68 1015.1
20260905035331 15 309 1.6 9.7 0.00 0.05 0.05 68 1015.0
20260905033848 15 0 1.6 4.8 0.00 0.05 0.05 68 1014.8
20260905033322 16 5 1.6 14.5 0.00 0.05 0.05 66 1014.7
20260905032824 16 5 1.6 8.0 0.00 0.05 0.05 65 1014.6
20260905030843 16 5 1.6 9.7 0.00 0.05 0.05 65 1014.5
20260905025844 16 304 1.6 4.8 0.00 0.05 0.05 64 1014.4
20260905024840 17 333 1.6 6.4 0.00 0.05 0.05 63 1014.4
20260905023840 17 333 0.0 6.4 0.00 0.05 0.05 63 1014.3
20260905022842 17 324 1.6 12.9 0.00 0.05 0.05 62 1014.3
20260905021842 17 265 1.6 4.8 0.00 0.05 0.05 62 1014.2
20260905020841 17 265 1.6 8.0 0.00 0.05 0.05 60 1014.0
20260905015838 17 288 1.6 12.9 0.00 0.05 0.05 61 1014.1
20260905014841 17 280 4.8 17.7 0.00 0.05 0.05 60 1014.0
20260905013838 17 277 3.2 17.7 0.00 0.05 0.05 62 1013.9
20260905013751 17 355 3.2 9.7 0.00 0.05 0.05 61 1013.9
20260905011840 18 322 1.6 8.0 0.00 0.05 0.05 63 1013.9
20260905010837 18 5 3.2 9.7 0.00 0.05 0.05 62 1013.7
20260905005838 18 22 3.2 16.1 0.00 0.05 0.05 64 1013.8
20260905004836 18 276 1.6 14.5 0.00 0.05 0.05 64 1013.8
20260905003836 18 345 3.2 17.7 0.00 0.05 0.05 62 1013.7
20260905002836 18 10 3.2 14.5 0.00 0.05 0.05 62 1013.7